Weather History for PABA - June, 2014

Change the Weather History Date:

Saturday, June 7, 2014

  Actual Average Record
Temperature  
Mean Temperature 34 °F -  
Max Temperature 30 °F 32 °F 46 °F (2002)
Min Temperature 30 °F 27 °F 21 °F (2011)
Degree Days  
Heating Degree Days 32    
Moisture  
Dew Point 30 °F    
Average Humidity 91    
Maximum Humidity 100    
Minimum Humidity 76    
Precipitation  
Precipitation 0.00 in - - ()
Sea Level Pressure  
Sea Level Pressure 29.94 in    
Wind  
Wind Speed 9 mph (ENE)    
Max Wind Speed 16 mph    
Max Gust Speed -    
Visibility 5 miles    
Events Fog , Rain , Snow    
Averages and records for this station are not official NWS values.
T = Trace of Precipitation, MM = Missing Value Source: NWS Daily Summary

Daily Weather History Graph

Daily Weather History Graph

Search for Another Location

Airport or City:

Trip Planner

Search our weather history database for the weather conditions in past years. The results will help you decide how hot, cold, wet, or windy it might be!

Date:

Astronomy

Dec. 31, 1969 Rise Set
Actual Time Sun does not rise Sun does not rise
Civil Twilight Sun does not rise Sun does not rise
Nautical Twilight Sun does not rise Sun does not rise
Astronomical Twilight Sun does not rise Sun does not rise
Moon 4:16 PM AKDT (6/7) 2:03 AM AKDT (6/7)
Length of Visible Light 24h 00m
Length of Day
24h 00m
Waxing Gibbous, 69% of the Moon is Illuminated
Jun 7
Waxing Gibbous
Jun 12
Full
Jun 19
Last Quarter
Jun 27
New
Jul 5
First Quarter

Hourly Weather History & Observations

Time (AKDT) Temp. Windchill Dew Point Humidity Pressure Visibility Wind Dir Wind Speed Gust Speed Precip Events Conditions
12:16 AM 30.2 °F 20.2 °F 28.4 °F 93% 29.93 in 1.8 mi East 12.7 mph - N/A   Mist
12:20 AM 30.2 °F 21.3 °F 28.4 °F 93% 29.93 in 0.8 mi East 10.4 mph - N/A Snow Light Snow
12:26 AM 30.2 °F 19.8 °F 28.4 °F 93% 29.93 in 0.8 mi East 13.8 mph - N/A Snow Light Snow
12:30 AM 30.2 °F 20.2 °F 28.4 °F 93% 29.93 in 1.2 mi East 12.7 mph - N/A Snow Light Snow
12:34 AM 30.2 °F 20.2 °F 28.4 °F 93% 29.93 in 4.0 mi East 12.7 mph - N/A   Overcast
12:41 AM 30.2 °F 20.2 °F 28.4 °F 93% 29.93 in 1.8 mi East 12.7 mph - N/A   Overcast
12:47 AM 30.2 °F 20.2 °F 28.4 °F 93% 29.93 in 0.8 mi East 12.7 mph - N/A Snow Light Snow
12:52 AM 30.2 °F 20.2 °F 28.4 °F 93% 29.93 in 1.2 mi East 12.7 mph - N/A Snow Light Snow
12:55 AM 30.2 °F 20.8 °F 28.4 °F 93% 29.94 in 3.0 mi East 11.5 mph - N/A Snow Light Snow
1:01 AM 30.2 °F 20.2 °F 28.4 °F 93% 29.93 in 9.0 mi East 12.7 mph - N/A   Overcast
1:07 AM 30.2 °F 19.8 °F 28.4 °F 93% 29.92 in 3.0 mi East 13.8 mph - N/A   Overcast
1:25 AM 30.2 °F 19.8 °F 28.4 °F 93% 29.92 in 3.0 mi East 13.8 mph - N/A   Overcast
1:32 AM 30.2 °F 18.9 °F 28.4 °F 93% 29.91 in 1.2 mi East 16.1 mph - N/A Snow Light Snow
1:45 AM 30.2 °F 18.9 °F 28.4 °F 93% 29.90 in 7.0 mi East 16.1 mph - N/A   Overcast
1:52 AM 30.2 °F 20.8 °F 28.4 °F 93% 29.91 in 1.0 mi East 11.5 mph - N/A Snow Light Snow
1:55 AM 30.2 °F 21.3 °F 28.4 °F 93% 29.92 in 0.5 mi East 10.4 mph - N/A Fog , Snow Light Snow
2:01 AM 30.0 °F 20.5 °F 28.9 °F 96% 29.92 in 0.5 mi East 11.5 mph - N/A Fog , Snow Light Snow
2:07 AM 30.2 °F 20.8 °F 28.4 °F 93% 29.92 in 1.0 mi East 11.5 mph - 0.00 in Snow Light Snow
2:12 AM 30.2 °F 20.8 °F 28.4 °F 93% 29.92 in 2.0 mi East 11.5 mph - 0.00 in Snow Light Snow
2:21 AM 30.2 °F 20.2 °F 28.4 °F 93% 29.92 in 9.0 mi East 12.7 mph - 0.00 in   Overcast
2:41 AM 30.2 °F 20.8 °F 28.4 °F 93% 29.92 in 1.8 mi East 11.5 mph - 0.00 in   Overcast
2:49 AM 30.2 °F 20.8 °F 28.4 °F 93% 29.92 in 1.0 mi East 11.5 mph - 0.00 in   Overcast
2:53 AM 30.2 °F 21.9 °F 28.4 °F 93% 29.93 in 2.5 mi East 9.2 mph - 0.00 in   Overcast
3:39 AM 30.2 °F 23.4 °F 28.4 °F 93% 29.94 in 1.8 mi ENE 6.9 mph - N/A   Mist
3:49 AM 30.2 °F 22.6 °F 28.4 °F 93% 29.94 in 0.8 mi ENE 8.1 mph - N/A   Mist
3:56 AM 30.2 °F 24.3 °F 28.4 °F 93% 29.94 in 0.5 mi NE 5.8 mph - N/A Fog Light Freezing Fog
4:01 AM 30.0 °F 22.4 °F 28.9 °F 96% 29.94 in 0.5 mi NE 8.1 mph - N/A Fog Light Freezing Fog
4:05 AM 30.2 °F 22.6 °F 28.4 °F 93% 29.94 in 1.0 mi NE 8.1 mph - N/A   Overcast
4:14 AM 30.2 °F 24.3 °F 28.4 °F 93% 29.94 in 1.8 mi East 5.8 mph - N/A   Overcast
4:21 AM 30.2 °F 23.4 °F 28.4 °F 93% 29.94 in 0.8 mi ENE 6.9 mph - 0.00 in Snow Light Snow
4:29 AM 30.2 °F 24.3 °F 28.4 °F 93% 29.94 in 1.2 mi ENE 5.8 mph - 0.00 in Snow Light Snow
4:43 AM 30.2 °F 25.4 °F 28.4 °F 93% 29.94 in 1.5 mi NE 4.6 mph - 0.00 in   Overcast
4:45 AM 30.2 °F 24.3 °F 28.4 °F 93% 29.94 in 0.8 mi NE 5.8 mph - 0.00 in   Overcast
4:50 AM 30.2 °F 24.3 °F 28.4 °F 93% 29.94 in 0.2 mi ENE 5.8 mph - 0.00 in Fog Light Freezing Fog
5:01 AM 30.0 °F 22.4 °F 28.9 °F 96% 29.94 in 0.2 mi NE 8.1 mph - 0.00 in Fog Light Freezing Fog
5:06 AM 30.2 °F 23.4 °F 28.4 °F 93% 29.94 in 0.8 mi ENE 6.9 mph - N/A   Overcast
5:46 AM 30.2 °F 25.4 °F 28.4 °F 93% 29.94 in 10.0 mi ENE 4.6 mph - N/A   Overcast
6:01 AM 30.0 °F 26.5 °F 28.9 °F 96% 29.94 in 10.0 mi NE 3.5 mph - N/A   Overcast
6:49 AM 30.2 °F 26.7 °F 30.2 °F 100% 29.94 in 10.0 mi East 3.5 mph - N/A   Overcast
6:59 AM 30.2 °F 26.7 °F 30.2 °F 100% 29.94 in 10.0 mi East 3.5 mph - N/A   Overcast
7:01 AM 30.9 °F 27.5 °F 30.0 °F 96% 29.94 in 10.0 mi East 3.5 mph - N/A   Overcast
7:41 AM 32.0 °F 28.7 °F 30.2 °F 93% 29.94 in 10.0 mi SE 3.5 mph - N/A   Overcast
8:01 AM 32.0 °F - 30.9 °F 96% 29.94 in 3.0 mi Calm Calm - N/A   Overcast
8:06 AM 32.0 °F - 30.2 °F 93% 29.94 in 1.8 mi Calm Calm - N/A   Overcast
8:13 AM 32.0 °F - 30.2 °F 93% 29.94 in 2.5 mi Calm Calm - N/A   Overcast
9:24 AM 33.8 °F - 32.0 °F 93% 29.95 in 2.5 mi Calm Calm - N/A   Overcast
9:32 AM 33.8 °F - 32.0 °F 93% 29.95 in 1.5 mi Calm Calm - N/A   Overcast
9:36 AM 33.8 °F - 32.0 °F 93% 29.95 in 4.0 mi Calm Calm - N/A   Overcast
10:01 AM 35.1 °F - 33.1 °F 92% 29.96 in 10.0 mi Calm Calm - N/A   Overcast
10:27 AM 35.6 °F - 32.0 °F 87% 29.96 in 10.0 mi Calm Calm - N/A   Overcast
10:54 AM 35.6 °F - 32.0 °F 87% 29.96 in 10.0 mi Calm Calm - N/A   Overcast
11:01 AM 36.0 °F - 32.0 °F 86% 29.96 in 10.0 mi Calm Calm - N/A   Overcast
11:59 AM 33.8 °F 30.8 °F 30.2 °F 87% 29.96 in 10.0 mi NW 3.5 mph - 0.00 in Rain Light Rain
12:01 PM 34.0 °F 31.0 °F 30.0 °F 85% 29.96 in 10.0 mi NNW 3.5 mph - 0.00 in Rain Light Rain
1:01 PM 36.0 °F 32.1 °F 30.0 °F 79% 29.96 in 10.0 mi NNW 4.6 mph - 0.00 in   Partly Cloudy
2:01 PM 35.1 °F 31.0 °F 30.0 °F 82% 29.96 in 10.0 mi NW 4.6 mph - N/A   Mostly Cloudy
2:47 PM 35.6 °F 32.8 °F 30.2 °F 81% 29.97 in 10.0 mi NNW 3.5 mph - N/A   Mostly Cloudy
3:01 PM 37.0 °F 34.5 °F 30.9 °F 79% 29.96 in 10.0 mi NW 3.5 mph - N/A   Mostly Cloudy
4:01 PM 36.0 °F - 30.0 °F 79% 29.96 in 10.0 mi North - - N/A   Overcast
5:01 PM 37.0 °F 34.5 °F 30.0 °F 76% 29.96 in 10.0 mi NNW 3.5 mph - N/A   Overcast
5:58 PM 33.8 °F 30.8 °F 32.0 °F 93% 29.95 in 10.0 mi NNW 3.5 mph - N/A   Overcast
6:01 PM 35.1 °F 31.0 °F 32.0 °F 89% 29.95 in 10.0 mi NNW 4.6 mph - N/A   Overcast
7:01 PM 36.0 °F 33.3 °F 30.0 °F 79% 29.94 in 10.0 mi NE 3.5 mph - N/A   Overcast
8:01 PM 36.0 °F - 30.9 °F 82% 29.94 in 10.0 mi Calm Calm - N/A   Overcast
8:39 PM 33.8 °F 30.8 °F 30.2 °F 87% 29.93 in 10.0 mi North 3.5 mph - N/A   Overcast
9:01 PM 34.0 °F 29.8 °F 30.0 °F 85% 29.93 in 10.0 mi NNE 4.6 mph - N/A   Overcast
10:36 PM 32.0 °F 27.5 °F 30.2 °F 93% 29.92 in 10.0 mi NE 4.6 mph - N/A   Overcast
10:51 PM 32.0 °F 27.5 °F 30.2 °F 93% 29.93 in 4.0 mi NE 4.6 mph - N/A   Overcast
10:53 PM 32.0 °F 27.5 °F 30.2 °F 93% 29.92 in 1.8 mi ENE 4.6 mph - N/A   Overcast
11:01 PM 32.0 °F 26.4 °F 30.2 °F 93% 29.93 in 1.5 mi NE 5.8 mph - N/A   Overcast
11:08 PM 30.2 °F 24.3 °F 30.2 °F 100% 29.92 in 3.0 mi NE 5.8 mph - N/A   Overcast